Weather History for Pittsfield, MA

Change the Weather History Date:

Thursday, May 1, 2014

  Actual Average Record
Temperature  
Mean Temperature 56 °F 50 °F  
Max Temperature 69 °F 61 °F 80 °F (1930)
Min Temperature 42 °F 39 °F 26 °F (1961)
Degree Days  
Heating Degree Days 9 15  
Month to date heating degree days 9 15  
Since 1 July heating degree days 7425 7050  
Cooling Degree Days 0 0  
Month to date cooling degree days 0 0  
Year to date cooling degree days 1 2  
Growing Degree Days 6 (Base 50)    
Moisture  
Dew Point 46 °F    
Average Humidity 72    
Maximum Humidity 100    
Minimum Humidity 44    
Precipitation  
Precipitation 0.42 in 0.10 in 1.40 in (1953)
Month to date precipitation 0.42 0.10  
Year to date precipitation 13.37 12.93  
Sea Level Pressure  
Sea Level Pressure 29.79 in    
Wind  
Wind Speed 6 mph (NNE)    
Max Wind Speed 18 mph    
Max Gust Speed 23 mph    
Visibility 7 miles    
Events Rain , Thunderstorm    
T = Trace of Precipitation, MM = Missing Value Source: NWS Daily Summary

Daily Weather History Graph

Daily Weather History Graph

Search for Another Location

Airport:

Trip Planner

Search our weather history database for the weather conditions in past years. The results will help you decide how hot, cold, wet, or windy it might be!

Date:

Astronomy

May. 01, 2014 Rise Set
Actual Time 5:48 AM EDT 7:52 PM EDT
Civil Twilight 5:17 AM EDT 8:23 PM EDT
Nautical Twilight 4:40 AM EDT 9:01 PM EDT
Astronomical Twilight 3:58 AM EDT 9:42 PM EDT
Moon 7:32 AM EDT (5/1) 10:25 PM EDT (5/1)
Length of Visible Light 15h 06m
Length of Day
14h 04m
Waxing Crescent, 6% of the Moon is Illuminated
May 1
Waxing Crescent
May 6
First Quarter
May 14
Full
May 21
Last Quarter
May 28
New

Hourly Weather History & Observations

Time (EDT) Temp. Windchill Dew Point Humidity Pressure Visibility Wind Dir Wind Speed Gust Speed Precip Events Conditions
12:54 AM 42.1 °F 37.7 °F 39.9 °F 92% 30.02 in 6.0 mi Variable 6.9 mph - 0.08 in Rain Light Rain
1:30 AM 43.0 °F 37.7 °F 41.0 °F 93% 29.99 in 3.0 mi East 9.2 mph - 0.07 in Rain Rain
1:54 AM 42.1 °F 37.7 °F 41.0 °F 96% 29.99 in 4.0 mi ENE 6.9 mph - 0.11 in Rain Light Rain
2:21 AM 42.1 °F 38.4 °F 41.0 °F 96% 29.95 in 4.0 mi Variable 5.8 mph - 0.05 in Rain Rain
2:32 AM 43.0 °F 39.5 °F 41.0 °F 93% 29.94 in 5.0 mi NE 5.8 mph 16.1 mph 0.06 in Rain Light Rain
2:54 AM 43.0 °F 38.2 °F 41.0 °F 93% 29.92 in 8.0 mi East 8.1 mph - 0.07 in Rain Light Rain
3:03 AM 44.1 °F 39.5 °F 42.1 °F 93% 29.91 in 10.0 mi East 8.1 mph - 0.00 in   Overcast
3:15 AM 46.0 °F 42.5 °F 43.0 °F 89% 29.91 in 7.0 mi Variable 6.9 mph 17.3 mph 0.00 in Rain Light Rain
3:34 AM 44.1 °F 40.1 °F 42.1 °F 93% 29.90 in 10.0 mi ENE 6.9 mph - 0.00 in Rain Light Rain
4:54 AM 45.0 °F 43.5 °F 44.1 °F 97% 29.85 in 4.0 mi Variable 3.5 mph - 0.00 in   Overcast
5:15 AM 46.0 °F 43.9 °F 44.1 °F 93% 29.85 in 2.5 mi ENE 4.6 mph - 0.05 in Rain Rain
5:25 AM 45.0 °F 42.6 °F 44.1 °F 97% 29.84 in 4.0 mi Variable 4.6 mph - 0.06 in Rain Light Rain
5:34 AM 45.0 °F 42.6 °F 44.1 °F 97% 29.85 in 4.0 mi NNE 4.6 mph - 0.06 in   Overcast
5:45 AM 45.0 °F 41.2 °F 43.0 °F 93% 29.85 in 2.5 mi NE 6.9 mph - 0.07 in   Overcast
5:54 AM 44.1 °F 40.1 °F 43.0 °F 96% 29.85 in 2.0 mi NNE 6.9 mph - 0.07 in Rain Light Rain
5:56 AM 44.1 °F 40.1 °F 43.0 °F 96% 29.85 in 1.8 mi NNE 6.9 mph - 0.00 in Rain Light Rain
6:08 AM 44.1 °F 40.1 °F 43.0 °F 96% 29.84 in 2.0 mi NE 6.9 mph - 0.01 in Rain Light Rain
6:15 AM 44.1 °F 41.5 °F 43.0 °F 96% 29.84 in 1.8 mi NE 4.6 mph - 0.01 in Rain Light Rain
6:54 AM 44.1 °F 40.1 °F 43.0 °F 96% 29.83 in 1.5 mi NNE 6.9 mph - 0.01 in Rain Light Rain
7:04 AM 44.1 °F 40.8 °F 43.0 °F 96% 29.82 in 2.5 mi NE 5.8 mph - 0.01 in Rain Light Rain
7:18 AM 44.1 °F 40.1 °F 43.0 °F 96% 29.82 in 1.2 mi NNE 6.9 mph - 0.06 in Rain Rain
7:32 AM 44.1 °F 41.5 °F 43.0 °F 96% 29.83 in 1.8 mi North 4.6 mph - 0.11 in Rain Light Rain
7:50 AM 44.6 °F 42.2 °F 42.8 °F 93% 29.81 in 2.0 mi ENE 4.6 mph - 0.12 in Rain Light Rain
7:54 AM 44.1 °F 41.5 °F 43.0 °F 96% 29.82 in 3.0 mi ENE 4.6 mph - 0.12 in Rain Light Rain
8:54 AM 46.0 °F 43.9 °F 45.0 °F 96% 29.78 in 7.0 mi East 4.6 mph - 0.00 in Rain Light Rain
9:18 AM 46.9 °F - 46.0 °F 97% 29.78 in 10.0 mi NNE 3.5 mph - 0.01 in   Overcast
9:46 AM 48.0 °F - 46.0 °F 93% 29.78 in 10.0 mi NNE 4.6 mph - 0.01 in   Overcast
9:54 AM 48.9 °F - 46.0 °F 90% 29.77 in 10.0 mi NNE 3.5 mph - 0.01 in   Overcast
10:16 AM 48.9 °F - 46.9 °F 93% 29.78 in 10.0 mi Calm Calm - N/A   Overcast
10:54 AM 50.0 °F - 48.0 °F 93% 29.77 in 10.0 mi Calm Calm - N/A   Overcast
11:54 AM 54.0 °F - 50.0 °F 86% 29.76 in 10.0 mi Calm Calm - N/A   Overcast
12:47 PM 59.0 °F - 54.0 °F 83% 29.75 in 10.0 mi SE 5.8 mph - N/A   Mostly Cloudy
12:54 PM 60.1 °F - 55.0 °F 83% 29.73 in 10.0 mi ESE 5.8 mph - N/A   Mostly Cloudy
1:03 PM 60.1 °F - 54.0 °F 80% 29.75 in 10.0 mi ESE 4.6 mph - N/A   Mostly Cloudy
1:20 PM 61.0 °F - 55.0 °F 81% 29.74 in 10.0 mi SSE 5.8 mph - N/A   Mostly Cloudy
1:54 PM 62.1 °F - 55.0 °F 78% 29.69 in 10.0 mi ESE 4.6 mph - N/A   Mostly Cloudy
2:12 PM 64.0 °F - 55.0 °F 73% 29.71 in 10.0 mi SE 6.9 mph - N/A   Mostly Cloudy
2:54 PM 69.1 °F - 54.0 °F 58% 29.65 in 10.0 mi SW 6.9 mph - N/A   Scattered Clouds
3:54 PM 68.0 °F - 54.0 °F 61% 29.63 in 10.0 mi South 6.9 mph - N/A   Mostly Cloudy
4:54 PM 68.0 °F - 52.0 °F 56% 29.62 in 10.0 mi SSW 6.9 mph - N/A   Mostly Cloudy
5:54 PM 69.1 °F - 46.0 °F 44% 29.60 in 10.0 mi WSW 16.1 mph 21.9 mph N/A   Mostly Cloudy
6:31 PM 62.1 °F - 54.0 °F 75% 29.66 in 9.0 mi WNW 13.8 mph - 0.03 in Rain , Thunderstorm Light Thunderstorms and Rain
6:51 PM 59.0 °F - 51.8 °F 77% 29.69 in 7.0 mi WNW 12.7 mph 20.7 mph 0.04 in Rain Light Rain
6:54 PM 59.0 °F - 51.1 °F 75% 29.66 in 8.0 mi WNW 12.7 mph 20.7 mph 0.04 in Rain Light Rain
7:54 PM 57.9 °F - 48.9 °F 72% 29.68 in 10.0 mi WSW 3.5 mph - 0.00 in   Scattered Clouds
8:54 PM 55.9 °F - 48.0 °F 75% 29.69 in 10.0 mi WNW 3.5 mph - N/A   Partly Cloudy
9:54 PM 55.0 °F - 48.9 °F 80% 29.70 in 10.0 mi WNW 13.8 mph 23.0 mph N/A   Mostly Cloudy
10:01 PM 54.0 °F - 48.0 °F 80% 29.72 in 10.0 mi NW 11.5 mph 17.3 mph N/A   Mostly Cloudy
10:17 PM 52.0 °F - 48.0 °F 86% 29.74 in 10.0 mi WNW 11.5 mph 18.4 mph N/A   Mostly Cloudy
10:24 PM 52.0 °F - 46.9 °F 83% 29.75 in 10.0 mi WNW 11.5 mph 18.4 mph N/A   Mostly Cloudy
10:32 PM 51.1 °F - 45.0 °F 80% 29.75 in 10.0 mi West 11.5 mph 16.1 mph N/A   Mostly Cloudy
10:47 PM 51.1 °F - 41.0 °F 68% 29.76 in 10.0 mi WNW 11.5 mph 17.3 mph N/A   Mostly Cloudy
10:54 PM 51.1 °F - 39.9 °F 66% 29.73 in 10.0 mi NW 8.1 mph 19.6 mph N/A   Overcast
11:54 PM 50.0 °F - 36.0 °F 59% 29.72 in 10.0 mi WNW 5.8 mph - N/A   Overcast